Starlink 31126

operational
NORAD ID: 58675 Int'l Des: 2023-211 Owner: SPXS Country: US Constellation: starlink
LEOCIRCULAR

关于 Starlink 31126

正在加载描述...

实时位置

正在加载3D地球...

即将过境

高度历史

Altitude vs Time

uPlot chart will show altitude changes over time

两行轨道根数

1 58675U 23211J 25354.53130649 .00000086 00000-0 12649-4 0 9990
2 58675 42.9977 171.8612 0001960 273.7244 86.3384 15.27574861110361
Epoch: Dec 20, 2025 • Age: 12 hours

当前状态

高度 486.3 km
速度 7.62 km/s
星下点 -17.63°S, 90.49°W
发射日期 Dec 29, 2023
运行时间 1.9 years
类型 internet

技术详情

分类 Payload
质量 730.00 kg
干质量 700.00 kg
总质量 730.00 kg
长度 0.30 m
直径 4.10 m
跨度 29.00 m
形状 Box + pan
制造商 SPXS
平台类型 Starlink V2M
阶段状态 In Orbit
所有者/国家 SPXS/US

大型星座

Loading constellations...